Retour au catalogue

OPS 4682 DEB

ActifPO
NORAD 19954·DEBRIS·🇺🇸 United States

Lancé Apr 3, 1965 depuis Vandenberg Space Force Base

Loading…

Prochains Passages (prochaines 24 heures)

TLE

FraisSource: Space-Track

Époque: Sep 11, 2026, 18:23 UTC

1 19954U 65027AZ  26254.76610381  .00000190  00000-0  56462-3 0  9995
2 19954  90.3765  82.0795 0029565 274.7419 100.0438 13.05261894786840

Suivez OPS 4682 DEB en temps réel avec AllMySat

Download on the App Store